Simultaneous Nadir Overpasses (SNOs) Predictions

Prediction of SNOs between GOES-16 and METOP-C Satellite Orbit:

Table of predicted SNOs for the next 14.0 days since TLE Epoch: 8/23/2019
Index Date Time (GOES-16) GOES-16 Lat,Lon METOP-C Lat,Lon Distance(km) Time Diff (sec)
1 08/24/2019 14:28:48 0.01, -75.22 -0.07, -74.83 44.83 80
2 08/26/2019 02:50:29 -0.02, -75.21 -0.94, -79.43 480.40 80
3 08/27/2019 02:27:10 -0.01, -75.21 0.17, -74.43 88.97 80
4 08/28/2019 14:48:40 0.02, -75.23 0.89, -78.98 427.96 80
5 08/29/2019 14:25:21 0.01, -75.24 -0.28, -74.00 141.65 80
6 08/31/2019 02:47:02 -0.02, -75.23 -0.79, -78.59 382.85 80
7 09/01/2019 02:23:43 -0.01, -75.24 0.37, -73.61 187.23 80
8 09/02/2019 14:45:14 0.02, -75.28 0.67, -78.16 328.35 80
9 09/03/2019 14:21:54 0.01, -75.29 -0.43, -73.16 242.11 80
10 09/05/2019 02:43:35 -0.02, -75.30 -0.58, -77.76 281.17 80
11 09/06/2019 02:20:16 -0.02, -75.31 0.53, -72.77 289.63 80




NCC Satellite Simultaneous Nadir Overpasses (SNOs) Prediction Service
